Location: Usti nad Orlici
(49.9830°N, 16.4000°E)
Time: 00:34:57
(UTC+02:00)

ISS - Pass Details

Date: 25 March 2019
Orbit: 408 x 410 km, 51.6° (Epoch: 18 April)

Event Time Altitude Azimuth Distance (km) Brightness Sun altitude
Rises 18:37:04 0° 222° (SW) 2,328 0.5 -4.4°
Reaches altitude 10° 18:39:16 10° 211° (SSW) 1,469 -0.7 -4.8°
Maximum altitude 18:42:14 31° 147° (SSE) 743 -2.8 -5.2°
Drops below altitude 10° 18:45:12 10° 83° (E) 1,475 -1.6 -5.7°
Enters shadow 18:45:59 - 79° (ENE) 1,770 -1.2 -5.8°
